Shungnak AP, Shungnak, AK, AK

2:56 AM AKDT on September 21, 2017 (GMT -0800)
Shungnak AP, Shungnak, AK

Weather History for PAGH - September, 2014

Change the Weather History Date:

Wednesday, September 3, 2014

  Actual Average (PAFM) Record (PAFM)
Temperature  
Mean Temperature 36 °F -  
Max Temperature 46 °F 51 °F 73 °F (1991)
Min Temperature 28 °F 38 °F 25 °F (1983)
Degree Days  
Heating Degree Days 28    
Moisture  
Dew Point 28 °F    
Average Humidity 73    
Maximum Humidity 96    
Minimum Humidity 43    
Precipitation  
Precipitation 0.00 in - - ()
Sea Level Pressure  
Sea Level Pressure 30.13 in    
Wind  
Wind Speed 9 mph (West)    
Max Wind Speed 16 mph    
Max Gust Speed 24 mph    
Visibility 10 miles    
Events      
Averages and records for this station are not official NWS values.
T = Trace of Precipitation, MM = Missing Value Source: NWS Daily Summary

Daily Weather History Graph

Daily Weather History Graph

Search for Another Location

Airport or City:

Trip Planner

Search our weather history database for the weather conditions in past years. The results will help you decide how hot, cold, wet, or windy it might be!

Date:

Astronomy

Sep. 03, 2014 Rise Set
Actual Time 7:07 AM AKDT 9:45 PM AKDT
Civil Twilight 6:07 AM AKDT 10:45 PM AKDT
Nautical Twilight 4:39 AM AKDT 12:11 AM AKDT
Astronomical Twilight Sun does not set 1:55 AM AKDT
Moon 7:17 PM AKDT (9/3) No Moon Set
Length of Visible Light 16h 37m
Length of Day
14h 37m
Waxing Gibbous, 65% of the Moon is Illuminated
Sep 3
Waxing Gibbous
Sep 8
Full
Sep 15
Last Quarter
Sep 23
New
Oct 1
First Quarter

Hourly Weather History & Observations

Time (AKDT) Temp. Windchill Dew Point Humidity Pressure Visibility Wind Dir Wind Speed Gust Speed Precip Events Conditions
12:00 AM 37.4 °F 29.3 °F 33.8 °F 87% 29.87 in 10.0 mi WSW 12.7 mph - N/A   Overcast
12:24 AM 37.4 °F 29.3 °F 33.8 °F 87% 29.88 in 10.0 mi WSW 12.7 mph - N/A   Overcast
12:57 AM 37.9 °F 28.9 °F 34.0 °F 86% 29.97 in 10.0 mi WSW 16.1 mph 24.2 mph N/A   Partly Cloudy
1:57 AM 36.0 °F 28.5 °F 33.1 °F 89% 30.00 in 10.0 mi West 10.4 mph - N/A   Partly Cloudy
2:57 AM 35.1 °F 25.9 °F 32.0 °F 89% 30.01 in 10.0 mi West 13.8 mph - N/A   Clear
3:57 AM 30.9 °F 23.5 °F 28.9 °F 92% 30.04 in 10.0 mi NNW 8.1 mph - N/A   Clear
4:57 AM 30.0 °F 21.1 °F 28.0 °F 92% 30.06 in 10.0 mi West 10.4 mph - N/A   Clear
5:57 AM 30.0 °F 24.1 °F 28.0 °F 92% 30.08 in 10.0 mi West 5.8 mph - N/A   Clear
6:57 AM 28.9 °F 23.9 °F 28.0 °F 96% 30.10 in 10.0 mi SW 4.6 mph - N/A   Clear
7:57 AM 28.9 °F 22.8 °F 28.0 °F 96% 30.12 in 10.0 mi WSW 5.8 mph - N/A   Clear
8:57 AM 32.0 °F 25.6 °F 30.0 °F 92% 30.14 in 10.0 mi West 6.9 mph - N/A   Clear
9:57 AM 35.1 °F 27.9 °F 30.0 °F 82% 30.16 in 10.0 mi West 9.2 mph - N/A   Clear
10:57 AM 35.1 °F 27.4 °F 28.9 °F 78% 30.17 in 10.0 mi West 10.4 mph - N/A   Clear
11:57 AM 37.9 °F 32.1 °F 27.0 °F 65% 30.19 in 10.0 mi WNW 8.1 mph - N/A   Clear
12:57 PM 39.9 °F 34.5 °F 26.1 °F 58% 30.20 in 10.0 mi West 8.1 mph - N/A   Clear
1:57 PM 42.1 °F 36.6 °F 21.9 °F 45% 30.21 in 10.0 mi WNW 9.2 mph - N/A   Clear
2:57 PM 44.1 °F 38.6 °F 23.0 °F 43% 30.22 in 10.0 mi West 10.4 mph - N/A   Scattered Clouds
3:57 PM 45.0 °F 40.6 °F 24.1 °F 44% 30.22 in 10.0 mi WSW 8.1 mph - N/A   Overcast
4:57 PM 43.0 °F 39.5 °F 23.0 °F 45% 30.22 in 10.0 mi West 5.8 mph - N/A   Clear
5:57 PM 44.1 °F - 24.1 °F 45% 30.21 in 10.0 mi Calm Calm - N/A   Partly Cloudy
6:57 PM 43.0 °F 40.3 °F 26.1 °F 51% 30.21 in 10.0 mi NW 4.6 mph - N/A   Clear
7:57 PM 44.1 °F - 25.0 °F 47% 30.21 in 10.0 mi Calm Calm - N/A   Overcast
8:57 PM 42.1 °F 40.2 °F 28.9 °F 60% 30.21 in 10.0 mi SE 3.5 mph - N/A   Mostly Cloudy
9:57 PM 41.0 °F 37.1 °F 28.9 °F 62% 30.20 in 10.0 mi SSW 5.8 mph - N/A   Clear
10:57 PM 37.0 °F 32.4 °F 30.0 °F 76% 30.22 in 10.0 mi SW 5.8 mph - N/A   Clear
11:57 PM 34.0 °F - 32.0 °F 92% 30.23 in 10.0 mi Calm Calm - N/A   Clear